Location: Observatoire de l'Aigle
(47.0607°N, 71.3152°W)
Time: 13:01:06
(UTC-05:00)

Amateur Radio Satellites - All Passes

Search period start: 20 December 2014 12:31
Search period end: 21 December 2014 12:31
Location: Observatoire de l'Aigle, 47.0607°N, 71.3152°W

Satellite Date Start Highest point End Downlink Frequencies (MHz)
Time Altitude Azimuth
BEESAT 3 20 Dec 12:31:22 12:34:41 24° 115° (ESE) 12:38:04 437.485
AIST 2 20 Dec 12:37:57 12:39:53 13° 109° (ESE) 12:41:50 435.215
TISAT 1 20 Dec 12:40:14 12:44:16 46° 290° (WNW) 12:48:19 437.305
SPROUT 20 Dec 12:42:24 12:46:32 47° 289° (WNW) 12:50:39 437.525
YUBILEINY 20 Dec 12:50:04 12:55:50 20° 284° (WNW) 13:01:37 435.215
RS-15 20 Dec 12:54:11 13:05:04 71° 313° (NW) 13:16:08 29.354- 29.394
BEESAT 2 20 Dec 13:10:07 13:14:07 51° 121° (ESE) 13:18:11 435.950
AUBIESAT-1 20 Dec 13:10:32 13:13:29 18° 95° (E) 13:16:15 437.475
KKS-1 20 Dec 13:15:10 13:17:33 14° 89° (E) 13:19:57 437.445
SWISSCUBE 20 Dec 13:17:16 13:22:03 69° 103° (ESE) 13:26:46 437.505
ITUPSAT 1 20 Dec 13:17:36 13:22:22 64° 102° (ESE) 13:27:05 437.325
PCSat 20 Dec 13:32:32 13:37:50 58° 117° (ESE) 13:43:10 145.827
Oscar 19 20 Dec 13:32:51 13:36:54 23° 268° (W) 13:41:00 437.125/150
M-CUBED/EXP-1 PRIME 20 Dec 13:35:12 13:39:16 34° 101° (E) 13:43:00 437.505
Gurwin Techsat 1B 20 Dec 13:39:42 13:45:01 76° 257° (WSW) 13:50:21 435.225
BEESAT 20 Dec 13:42:22 13:47:09 75° 287° (WNW) 13:51:54 436.000
HORYU 2 20 Dec 13:45:43 13:50:03 53° 71° (ENE) 13:54:26 437.375
ITAMSAT 1 20 Dec 13:46:50 13:51:43 41° 262° (W) 13:56:38 435.822/435.867
ISS 20 Dec 13:55:15 13:58:27 49° 147° (SSE) 14:01:39 145.825
JAS-2 20 Dec 13:55:59 14:00:24 18° 53° (NE) 14:04:35 435.910
AO-7 20 Dec 13:57:48 14:05:41 49° 60° (ENE) 14:13:37 29.400- 29.500
BEESAT 3 20 Dec 14:08:42 14:12:39 44° 314° (NW) 14:16:41 437.485
AIST 2 20 Dec 14:13:37 14:17:52 82° 307° (NW) 14:22:13 435.215
AUBIESAT-1 20 Dec 14:44:29 14:48:50 52° 295° (WNW) 14:52:47 437.475
STARS 20 Dec 14:46:59 14:51:27 79° 104° (ESE) 14:55:54 437.465
BEESAT 2 20 Dec 14:49:08 14:52:37 25° 321° (NW) 14:56:08 435.950
KKS-1 20 Dec 14:50:13 14:54:40 68° 287° (WNW) 14:59:07 437.445
GONETS M04 20 Dec 14:50:14 14:57:33 28° 62° (ENE) 15:04:45
AIST 1 20 Dec 14:55:48 14:57:39 13° 83° (E) 14:59:30
SWISSCUBE 20 Dec 14:56:18 14:59:23 17° 301° (WNW) 15:02:27 437.505
ITUPSAT 1 20 Dec 14:56:32 14:59:48 19° 300° (WNW) 15:03:03 437.325
RS-15 20 Dec 15:10:02 15:19:44 34° 343° (NNW) 15:29:40 29.354- 29.394
M-CUBED/EXP-1 PRIME 20 Dec 15:10:19 15:14:10 29° 301° (WNW) 15:17:45 437.505
PCSat 20 Dec 15:16:51 15:21:35 30° 318° (NW) 15:26:21 145.827
BEESAT 20 Dec 15:22:35 15:24:10 12° 305° (NW) 15:25:46 436.000
HORYU 2 20 Dec 15:23:57 15:27:02 18° 269° (W) 15:30:09 437.375
Gurwin Techsat 1B 20 Dec 15:24:38 15:25:52 11° 275° (W) 15:27:07 435.225
ISS 20 Dec 15:31:53 15:35:05 45° 346° (NNW) 15:38:16 145.825
CUTE-I 20 Dec 15:35:57 15:39:19 17° 57° (ENE) 15:42:40 437.470
JAS-2 20 Dec 15:36:56 15:44:29 71° 72° (ENE) 15:51:20 435.910
BEESAT 3 20 Dec 15:50:24 15:51:55 12° 335° (NNW) 15:53:25 437.485
AO-7 20 Dec 15:50:40 15:58:32 46° 261° (W) 16:06:30 29.400- 29.500
AIST 2 20 Dec 15:54:17 15:57:11 17° 328° (NNW) 16:00:05 435.215
MOZHAYETS 4 20 Dec 15:58:22 16:02:13 25° 93° (E) 16:06:00
STARS 20 Dec 16:25:04 16:27:21 14° 302° (WNW) 16:29:37 437.465
AIST 1 20 Dec 16:30:21 16:34:43 69° 281° (W) 16:39:05
Cubesat XI-IV 20 Dec 16:40:14 16:45:25 54° 69° (ENE) 16:50:37 437.490
GONETS M04 20 Dec 16:46:34 16:55:20 76° 265° (W) 17:04:00
PRISM 20 Dec 16:48:12 16:49:20 11° 88° (E) 16:50:28 437.425
PCSat 20 Dec 17:05:29 17:06:53 11° 343° (NNW) 17:08:16 145.827
ISS 20 Dec 17:09:00 17:12:06 37° 6° (N) 17:15:11 145.825
CUTE-I 20 Dec 17:13:24 17:18:43 83° 255° (WSW) 17:24:05 437.470
CUBESAT XI-V 20 Dec 17:21:57 17:24:29 15° 89° (E) 17:27:01 437.345
JAS-2 20 Dec 17:23:49 17:29:57 27° 268° (W) 17:35:42 435.910
RS-15 20 Dec 17:26:12 17:36:05 35° 18° (NNE) 17:46:16 29.354- 29.394
STRAND 1 20 Dec 17:29:06 17:32:05 16° 89° (E) 17:35:04 437.568
MOZHAYETS 4 20 Dec 17:35:14 17:39:34 40° 291° (WNW) 17:43:51
HO-68 20 Dec 17:37:29 17:42:00 18° 48° (NE) 17:46:30 435.675
DANDE 20 Dec 17:46:32 17:49:28 12° 53° (NE) 17:52:35 436.750
MaSat-1 20 Dec 18:00:40 18:02:51 33° 245° (WSW) 18:05:10 437.345
PRISM 20 Dec 18:21:14 18:25:25 77° 286° (WNW) 18:29:32 437.425
Cubesat XI-IV 20 Dec 18:21:39 18:25:50 23° 268° (W) 18:30:02 437.490
CANX-2 20 Dec 18:29:23 18:32:03 16° 61° (ENE) 18:34:44 2200.000
CUSAT 1 20 Dec 18:36:12 18:42:32 29° 65° (ENE) 18:49:32 437.405
GONETS M04 20 Dec 18:45:34 18:50:34 17° 287° (WNW) 18:55:33
ISS 20 Dec 18:45:38 18:48:56 90° 31° (NNE) 18:52:13 145.825
COMPASS 1 20 Dec 18:51:01 18:53:54 18° 62° (ENE) 18:56:48 437.405
BRITE-PL 20 Dec 18:55:08 18:58:38 27° 66° (ENE) 19:02:08 437.365/2234.400
SEEDS 20 Dec 18:55:57 18:59:19 23° 65° (ENE) 19:02:42 437.485
CUTE-I 20 Dec 18:57:37 18:59:37 12° 274° (W) 19:01:37 437.470
CUBESAT XI-V 20 Dec 18:57:50 19:02:26 69° 286° (WNW) 19:06:59 437.345
CUTE 1.7 + AOD 2 20 Dec 18:59:01 19:02:40 28° 66° (ENE) 19:06:21 437.475
STRAND 1 20 Dec 19:06:45 19:11:52 76° 287° (WNW) 19:16:56 437.568
DELFI C3 20 Dec 19:09:37 19:10:46 11° 58° (ENE) 19:11:54 145.870
BEESAT 3 20 Dec 19:10:52 19:12:19 12° 24° (NNE) 19:13:46 437.485
DX 1 20 Dec 19:14:41 19:16:47 13° 58° (ENE) 19:18:53 434.975-435.025
HO-68 20 Dec 19:21:24 19:28:32 72° 69° (ENE) 19:35:42 435.675
GOMX 1 20 Dec 19:21:28 19:25:14 35° 69° (ENE) 19:29:05 467.674
DANDE 20 Dec 19:27:20 19:34:30 50° 72° (ENE) 19:42:47 436.750
Oscar 11 20 Dec 19:35:31 19:39:00 24° 65° (ENE) 19:42:31 145.826/435.025
RS-15 20 Dec 19:39:30 19:50:43 72° 48° (NE) 20:02:25 29.354- 29.394
UKube-1 20 Dec 19:44:07 19:47:35 24° 64° (ENE) 19:51:03 .
DOVE 4 20 Dec 19:46:34 19:50:32 47° 71° (ENE) 19:54:37 437.250
AAUSAT CUBESAT 2 20 Dec 19:49:41 19:53:49 59° 73° (ENE) 19:58:01 437.432
BEESAT 2 20 Dec 19:49:57 19:52:47 17° 33° (NNE) 19:55:36 435.950
CUBEBUG 2 20 Dec 19:55:31 19:58:55 24° 65° (ENE) 20:02:23 437.445
CANX-2 20 Dec 20:03:19 20:07:32 60° 259° (W) 20:11:49 2200.000
ZACube-1 20 Dec 20:06:06 20:09:25 23° 64° (ENE) 20:12:49 437.345
VELOX 1 20 Dec 20:08:46 20:11:32 17° 60° (ENE) 20:14:18 145.980
CINEMA 3 20 Dec 20:11:38 20:15:41 53° 72° (ENE) 20:19:53 145.822/145.860
CUSAT 1 20 Dec 20:18:39 20:26:12 78° 262° (W) 20:34:43 437.405
ISS 20 Dec 20:22:57 20:25:08 17° 224° (SW) 20:27:18 145.825
COMPASS 1 20 Dec 20:25:08 20:29:15 52° 260° (W) 20:33:26 437.405
SEEDS 20 Dec 20:30:58 20:34:56 39° 263° (W) 20:38:58 437.485
FUNcube-1 20 Dec 20:32:05 20:36:00 40° 69° (ENE) 20:40:02 145.935
UWE-3 20 Dec 20:32:50 20:36:51 48° 71° (ENE) 20:41:01 435.000/436.395/437.385
BRITE-PL 20 Dec 20:33:29 20:37:08 29° 265° (W) 20:40:48 437.365/2234.400
PCSat 20 Dec 20:34:36 20:38:44 22° 36° (NE) 20:42:51 145.827
CUTE 1.7 + AOD 2 20 Dec 20:34:42 20:38:31 31° 264° (W) 20:42:23 437.475
DELFI C3 20 Dec 20:41:15 20:45:22 90° 250° (WSW) 20:49:32 145.870
50 SAT 20 Dec 20:43:34 20:46:56 26° 66° (ENE) 20:50:19 437.505
BEESAT 3 20 Dec 20:47:34 20:51:35 43° 46° (NE) 20:55:33 437.485
STRAND 1 20 Dec 20:48:03 20:50:12 13° 306° (NW) 20:52:20 437.568
DX 1 20 Dec 20:48:05 20:52:26 80° 256° (WSW) 20:56:48 434.975-435.025
AISAT 20 Dec 20:50:21 20:54:27 39° 68° (ENE) 20:58:34 437.250
AIST 2 20 Dec 20:54:46 20:58:30 27° 40° (NE) 21:02:10 435.215
SO-50 20 Dec 20:55:38 21:00:08 64° 123° (ESE) 21:04:48 436.795
CUBEBUG 1 20 Dec 20:57:18 21:00:23 19° 62° (ENE) 21:03:28 437.445
GOMX 1 20 Dec 21:00:16 21:03:32 22° 267° (W) 21:06:50 467.674
HUMSAT D 20 Dec 21:05:26 21:09:28 54° 72° (ENE) 21:13:35 437.325/437.525
Oscar 11 20 Dec 21:10:57 21:14:59 38° 263° (W) 21:19:05 145.826/435.025
DANDE 20 Dec 21:10:57 21:17:58 44° 268° (W) 21:25:56 436.750
HO-68 20 Dec 21:11:09 21:16:52 25° 268° (W) 21:22:38 435.675
UKube-1 20 Dec 21:19:29 21:23:33 39° 262° (W) 21:27:38 .
DOVE 4 20 Dec 21:25:57 21:28:40 17° 270° (W) 21:31:25 437.250
BEESAT 2 20 Dec 21:27:27 21:31:41 85° 53° (NE) 21:35:51 435.950
AAUSAT CUBESAT 2 20 Dec 21:27:32 21:29:53 15° 271° (W) 21:32:16 437.432
CUBEBUG 2 20 Dec 21:31:35 21:35:28 36° 263° (W) 21:39:27 437.445
TIGRISAT 20 Dec 21:34:22 21:37:58 22° 92° (E) 21:41:34 435.000
POPSAT HIP 1 20 Dec 21:35:27 21:37:28 13° 89° (E) 21:39:28 437.405
ZACube-1 20 Dec 21:41:41 21:45:36 38° 263° (W) 21:49:37 437.345
VELOX 1 20 Dec 21:43:16 21:47:39 64° 258° (WSW) 21:52:04 145.980
ESTCUBE 1 20 Dec 21:46:00 21:50:28 59° 72° (ENE) 21:54:56 437.505/2401.250
CINEMA 3 20 Dec 21:50:44 21:53:18 16° 270° (W) 21:55:55 145.822/145.860
RS-15 20 Dec 21:52:24 22:02:27 40° 251° (WSW) 22:12:54 29.354- 29.394
TISAT 1 20 Dec 22:00:59 22:04:13 22° 64° (ENE) 22:07:27 437.305
BUGSAT 1 20 Dec 22:01:10 22:04:02 18° 92° (E) 22:06:53 437.445
DUCHIFAT 1 20 Dec 22:02:14 22:05:43 24° 94° (E) 22:09:12 145.980
YUBILEINY 20 Dec 22:02:22 22:08:41 23° 77° (ENE) 22:14:58 435.215
UNISAT 6 20 Dec 22:03:01 22:07:28 40° 98° (E) 22:11:54 437.425
CUSAT 1 20 Dec 22:03:26 22:08:26 19° 279° (W) 22:13:45 437.405
SPROUT 20 Dec 22:04:35 22:07:53 22° 64° (ENE) 22:11:13 437.525
FUNcube-1 20 Dec 22:09:20 22:12:33 21° 268° (W) 22:15:50 145.935
UWE-3 20 Dec 22:10:52 22:13:43 18° 269° (W) 22:16:38 435.000/436.395/437.385
QB50P2 20 Dec 22:15:36 22:19:30 34° 97° (E) 22:23:24 145.880/145.840
PCSat 20 Dec 22:17:27 22:22:56 88° 57° (ENE) 22:28:21 145.827
50 SAT 20 Dec 22:18:30 22:22:04 30° 264° (W) 22:25:41 437.505
POLYITAN 1 20 Dec 22:24:22 22:28:27 41° 98° (E) 22:32:31 437.675
BEESAT 3 20 Dec 22:26:08 22:29:35 25° 245° (WSW) 22:32:58 437.485
NANOSAT C BR1 20 Dec 22:26:29 22:30:33 43° 99° (E) 22:34:37 145.865
AISAT 20 Dec 22:27:40 22:31:13 23° 266° (W) 22:34:47 437.250
CUBEBUG 1 20 Dec 22:32:10 22:36:25 51° 260° (W) 22:40:41 437.445
AIST 2 20 Dec 22:33:10 22:37:20 48° 240° (WSW) 22:41:24 435.215
ANTELSAT 20 Dec 22:34:48 22:39:33 81° 103° (ESE) 22:44:17 437.575/2403.000
SO-50 20 Dec 22:37:13 22:41:05 25° 324° (NW) 22:45:04 436.795
QB50P1 20 Dec 22:40:50 22:45:04 61° 101° (ESE) 22:49:17 145.935-145.965
HUMSAT D 20 Dec 22:43:08 22:45:38 16° 270° (W) 22:48:10 437.325/437.525
SWISSCUBE 20 Dec 22:51:28 22:54:25 17° 58° (ENE) 22:57:22 437.505
ITUPSAT 1 20 Dec 22:52:13 22:54:59 16° 58° (ENE) 22:57:46 437.325
M-CUBED/EXP-1 PRIME 20 Dec 22:54:29 22:57:01 14° 51° (NE) 22:59:33 437.505
BEESAT 2 20 Dec 23:07:42 23:09:17 12° 251° (WSW) 23:10:51 435.950
POPSAT HIP 1 20 Dec 23:09:35 23:13:49 68° 286° (WNW) 23:18:04 437.405
TIGRISAT 20 Dec 23:10:26 23:14:57 49° 290° (WNW) 23:19:29 435.000
BEESAT 20 Dec 23:15:22 23:19:11 24° 63° (ENE) 23:23:00 436.000
ESTCUBE 1 20 Dec 23:24:48 23:27:43 17° 270° (W) 23:30:39 437.505/2401.250
TISAT 1 20 Dec 23:35:51 23:39:49 40° 262° (W) 23:43:49 437.305
BUGSAT 1 20 Dec 23:35:54 23:39:44 43° 290° (WNW) 23:43:35 437.445
DUCHIFAT 1 20 Dec 23:37:47 23:41:40 36° 292° (WNW) 23:45:33 145.980
SPROUT 20 Dec 23:39:43 23:43:45 41° 262° (W) 23:47:49 437.525
UNISAT 6 20 Dec 23:40:09 23:44:05 27° 295° (WNW) 23:48:01 437.425
O/OREOS (USA 219) 20 Dec 23:49:56 23:53:50 31° 105° (ESE) 23:57:46 437.305
QB50P2 20 Dec 23:51:44 23:55:19 26° 294° (WNW) 23:58:53 145.880/145.840
YUBILEINY 20 Dec 23:55:37 00:04:23 85° 279° (W) 00:13:09 435.215
POLYITAN 1 21 Dec 00:00:51 00:04:10 22° 296° (WNW) 00:07:29 437.675
AUBIESAT-1 21 Dec 00:00:55 00:05:30 43° 63° (ENE) 00:10:07 437.475
Oscar 19 21 Dec 00:02:15 00:05:02 14° 88° (E) 00:07:48 437.125/150
PCSat 21 Dec 00:02:31 00:05:34 15° 256° (WSW) 00:08:37 145.827
NANOSAT C BR1 21 Dec 00:02:57 00:06:11 21° 296° (WNW) 00:09:25 145.865
ANTELSAT 21 Dec 00:13:05 00:15:44 15° 301° (WNW) 00:18:23 437.575/2403.000
STARS 21 Dec 00:13:31 00:15:36 13° 58° (ENE) 00:17:42 437.465
KKS-1 21 Dec 00:16:21 00:19:33 20° 62° (ENE) 00:22:47 437.445
QB50P1 21 Dec 00:17:54 00:20:31 16° 299° (WNW) 00:23:07 145.935-145.965
SO-50 21 Dec 00:22:17 00:23:20 11° 348° (NNW) 00:24:22 436.795
M-CUBED/EXP-1 PRIME 21 Dec 00:26:22 00:31:14 78° 69° (ENE) 00:36:10 437.505
SWISSCUBE 21 Dec 00:26:55 00:31:43 75° 257° (WSW) 00:36:32 437.505
ITUPSAT 1 21 Dec 00:27:27 00:32:16 81° 256° (WSW) 00:37:06 437.325
BEESAT 21 Dec 00:52:09 00:56:46 47° 261° (W) 01:01:24 436.000
O/OREOS (USA 219) 21 Dec 01:29:10 01:33:12 32° 304° (NW) 01:37:15 437.305
AUBIESAT-1 21 Dec 01:36:22 01:40:32 28° 261° (W) 01:44:45 437.475
Oscar 19 21 Dec 01:39:48 01:45:02 83° 286° (WNW) 01:50:14 437.125/150
STARS 21 Dec 01:47:05 01:51:28 81° 256° (WSW) 01:55:53 437.465
KKS-1 21 Dec 01:51:34 01:55:52 51° 260° (W) 02:00:12 437.445
Gurwin Techsat 1B 21 Dec 01:53:04 01:57:53 34° 96° (E) 02:02:41 435.225
ITAMSAT 1 21 Dec 01:56:10 02:01:16 55° 101° (E) 02:06:20 435.822/435.867
YUBILEINY 21 Dec 01:56:17 02:02:38 22° 303° (WNW) 02:09:01 435.215
M-CUBED/EXP-1 PRIME 21 Dec 02:03:50 02:06:44 16° 266° (W) 02:09:40 437.505
SO-50 21 Dec 02:04:46 02:06:08 11° 14° (NNE) 02:07:30 436.795
ITUPSAT 1 21 Dec 02:10:41 02:10:56 10° 274° (W) 02:11:11 437.325
AIST 1 21 Dec 02:34:43 02:38:45 38° 75° (ENE) 02:42:44
MOZHAYETS 4 21 Dec 03:03:15 03:07:25 34° 67° (ENE) 03:11:37
HORYU 2 21 Dec 03:10:41 03:15:13 71° 103° (ESE) 03:19:43 437.375
VERMONT LUNAR 21 Dec 03:12:27 03:15:00 19° 162° (SSE) 03:17:33 437.305
Oscar 19 21 Dec 03:20:54 03:23:35 14° 305° (NW) 03:26:15 437.125/150
PHONESAT 2.4 21 Dec 03:28:05 03:30:36 18° 161° (SSE) 03:33:08 2401.200-2431.200
Gurwin Techsat 1B 21 Dec 03:33:01 03:37:52 37° 294° (WNW) 03:42:42 435.225
ITAMSAT 1 21 Dec 03:36:22 03:40:25 24° 299° (WNW) 03:44:27 435.822/435.867
PRISM 21 Dec 03:41:33 03:43:53 15° 60° (ENE) 03:46:13 437.425
SO-50 21 Dec 03:44:10 03:48:19 27° 37° (NE) 03:52:30 436.795
AO-7 21 Dec 03:48:02 03:56:14 54° 102° (ESE) 04:04:21 29.400- 29.500
GONETS M04 21 Dec 03:56:26 04:03:26 28° 80° (E) 04:10:26
AIST 1 21 Dec 04:12:57 04:16:10 21° 273° (W) 04:19:21
CUBESAT XI-V 21 Dec 04:28:12 04:31:44 22° 63° (ENE) 04:35:15 437.345
JAS-2 21 Dec 04:29:20 04:34:46 42° 97° (E) 04:39:45 435.910
MOZHAYETS 4 21 Dec 04:40:35 04:44:40 30° 265° (W) 04:48:47
STRAND 1 21 Dec 04:47:27 04:51:54 32° 64° (ENE) 04:56:23 437.568
HORYU 2 21 Dec 04:48:40 04:51:21 16° 301° (WNW) 04:54:01 437.375
VERMONT LUNAR 21 Dec 04:49:41 04:52:45 28° 179° (S) 04:55:50 437.305
Cubesat XI-IV 21 Dec 04:55:35 04:58:56 17° 89° (E) 05:02:17 437.490
PHONESAT 2.4 21 Dec 05:05:32 05:08:42 29° 177° (S) 05:11:53 2401.200-2431.200
PRISM 21 Dec 05:14:42 05:18:54 69° 257° (WSW) 05:23:08 437.425
SO-50 21 Dec 05:24:25 05:29:16 64° 237° (WSW) 05:34:07 436.795
CUTE-I 21 Dec 05:27:47 05:32:29 31° 95° (E) 05:37:09 437.470
AO-7 21 Dec 05:41:09 05:48:50 43° 303° (WNW) 05:56:31 29.400- 29.500
GONETS M04 21 Dec 05:50:34 05:59:25 74° 281° (WNW) 06:08:17
CUBESAT XI-V 21 Dec 06:04:19 06:08:51 50° 261° (W) 06:13:24 437.345
JAS-2 21 Dec 06:14:45 06:19:43 30° 299° (WNW) 06:24:19 435.910
STRAND 1 21 Dec 06:26:15 06:31:00 38° 263° (W) 06:35:47 437.568
VERMONT LUNAR 21 Dec 06:27:52 06:30:32 20° 196° (SSW) 06:33:11 437.305
Cubesat XI-IV 21 Dec 06:34:17 06:39:37 74° 288° (WNW) 06:44:54 437.490
PHONESAT 2.4 21 Dec 06:44:00 06:46:52 22° 195° (SSW) 06:49:44 2401.200-2431.200
CUTE-I 21 Dec 07:07:42 07:12:39 41° 293° (WNW) 07:17:35 437.470
AO-7 21 Dec 07:36:07 07:39:27 13° 326° (NNW) 07:42:47 29.400- 29.500
DOVE 4 21 Dec 07:43:53 07:45:44 12° 88° (E) 07:47:37 437.250
CANX-2 21 Dec 07:46:40 07:49:50 20° 92° (E) 07:52:58 2200.000
GONETS M04 21 Dec 07:52:09 07:58:01 19° 306° (NW) 08:03:54
CUSAT 1 21 Dec 07:54:50 07:56:17 12° 76° (ENE) 07:57:51 437.405
ANTELSAT 21 Dec 08:03:04 08:05:18 14° 58° (ENE) 08:07:34 437.575/2403.000
CINEMA 3 21 Dec 08:05:13 08:06:55 12° 87° (E) 08:08:39 145.822/145.860
COMPASS 1 21 Dec 08:06:43 08:09:59 21° 92° (E) 08:13:13 437.405
YUBILEINY 21 Dec 08:07:19 08:11:30 14° 49° (NE) 08:15:40 435.215
SEEDS 21 Dec 08:12:45 08:16:30 28° 95° (E) 08:20:11 437.485
Cubesat XI-IV 21 Dec 08:16:25 08:18:49 13° 307° (NW) 08:21:13 437.490
CUTE 1.7 + AOD 2 21 Dec 08:16:49 08:20:49 35° 97° (E) 08:24:46 437.475
O/OREOS (USA 219) 21 Dec 08:17:56 08:20:45 16° 46° (NE) 08:23:33 437.305
DELFI C3 21 Dec 08:21:28 08:22:30 11° 87° (E) 08:23:32 145.870
POPSAT HIP 1 21 Dec 08:31:42 08:34:16 16° 61° (ENE) 08:36:50 437.405
BRITE-PL 21 Dec 08:33:18 08:37:55 61° 101° (E) 08:42:54 437.365/2234.400
HO-68 21 Dec 08:33:20 08:40:23 56° 102° (ESE) 08:47:21 435.675
DX 1 21 Dec 08:35:03 08:37:23 14° 90° (E) 08:39:43 434.975-435.025
TIGRISAT 21 Dec 08:36:27 08:40:06 26° 65° (ENE) 08:43:50 435.000
DANDE 21 Dec 08:46:55 08:50:13 30° 87° (E) 08:54:28 436.750
MaSat-1 21 Dec 08:53:58 08:56:08 40° 302° (WNW) 08:58:16 437.345
BUGSAT 1 21 Dec 08:54:44 08:57:47 21° 64° (ENE) 09:00:50 437.445
Oscar 11 21 Dec 08:55:19 08:59:12 30° 95° (E) 09:03:03 145.826/435.025
GOMX 1 21 Dec 08:56:48 09:01:32 75° 102° (ESE) 09:06:35 467.674
DUCHIFAT 1 21 Dec 08:58:10 09:01:44 27° 66° (ENE) 09:05:19 145.980
UKube-1 21 Dec 09:04:24 09:08:06 27° 95° (E) 09:11:47 .
UNISAT 6 21 Dec 09:05:13 09:09:27 49° 71° (ENE) 09:13:50 437.425
AAUSAT CUBESAT 2 21 Dec 09:05:48 09:10:05 76° 103° (ESE) 09:14:18 437.432
QB50P2 21 Dec 09:11:47 09:15:41 38° 69° (ENE) 09:19:37 145.880/145.840
CUBEBUG 2 21 Dec 09:19:12 09:23:31 37° 97° (E) 09:27:54 437.445
DOVE 4 21 Dec 09:19:18 09:24:04 90° 282° (WNW) 09:29:06 437.250
POLYITAN 1 21 Dec 09:20:42 09:24:44 47° 71° (ENE) 09:28:48 437.675
CANX-2 21 Dec 09:21:51 09:26:00 45° 289° (WNW) 09:30:07 2200.000
NANOSAT C BR1 21 Dec 09:22:20 09:26:22 48° 71° (ENE) 09:30:26 145.865
ZACube-1 21 Dec 09:27:10 09:31:16 33° 96° (E) 09:35:23 437.345
VELOX 1 21 Dec 09:31:52 09:35:06 20° 92° (E) 09:38:19 145.980
CUSAT 1 21 Dec 09:34:14 09:38:05 71° 284° (WNW) 09:43:23 437.405
QB50P1 21 Dec 09:36:43 09:40:53 68° 74° (ENE) 09:45:06 145.935-145.965
ANTELSAT 21 Dec 09:37:03 09:41:26 81° 257° (WSW) 09:46:00 437.575/2403.000
CINEMA 3 21 Dec 09:39:59 09:44:43 90° 105° (ESE) 09:49:38 145.822/145.860
COMPASS 1 21 Dec 09:41:52 09:45:53 41° 290° (WNW) 09:49:52 437.405
SEEDS 21 Dec 09:48:31 09:52:19 31° 293° (WNW) 09:56:05 437.485
CUTE 1.7 + AOD 2 21 Dec 09:53:02 09:56:36 26° 294° (WNW) 10:00:09 437.475
FUNcube-1 21 Dec 09:53:28 09:57:57 58° 101° (E) 10:02:28 145.935
DELFI C3 21 Dec 09:54:10 09:58:19 77° 285° (WNW) 10:02:25 145.870
50 SAT 21 Dec 09:55:31 09:59:10 29° 95° (E) 10:02:48 437.505
UWE-3 21 Dec 09:55:52 10:00:28 73° 102° (ESE) 10:05:07 435.000/436.395/437.385
O/OREOS (USA 219) 21 Dec 09:56:13 10:00:45 80° 247° (WSW) 10:05:17 437.305
YUBILEINY 21 Dec 10:02:05 10:10:39 57° 75° (ENE) 10:19:10 435.215
POPSAT HIP 1 21 Dec 10:05:34 10:09:43 60° 259° (W) 10:13:55 437.405
RS-15 21 Dec 10:09:05 10:17:53 30° 104° (ESE) 10:26:40 29.354- 29.394
DX 1 21 Dec 10:09:45 10:14:04 65° 287° (WNW) 10:18:22 434.975-435.025
TIGRISAT 21 Dec 10:12:40 10:16:42 36° 263° (W) 10:20:52 435.000
BRITE-PL 21 Dec 10:12:51 10:16:06 19° 297° (WNW) 10:19:31 437.365/2234.400
AISAT 21 Dec 10:14:41 10:19:03 52° 100° (E) 10:23:23 437.250
CUBEBUG 1 21 Dec 10:18:42 10:22:10 23° 94° (E) 10:25:38 437.445
HO-68 21 Dec 10:21:30 10:27:48 35° 301° (WNW) 10:34:05 435.675
HUMSAT D 21 Dec 10:22:33 10:26:53 70° 102° (ESE) 10:31:13 437.325/437.525
BUGSAT 1 21 Dec 10:29:12 10:33:04 40° 262° (W) 10:36:55 437.445
DANDE 21 Dec 10:30:27 10:33:46 25° 298° (WNW) 10:37:59 436.750
Oscar 11 21 Dec 10:31:31 10:35:20 30° 293° (WNW) 10:39:07 145.826/435.025
DUCHIFAT 1 21 Dec 10:33:47 10:37:31 31° 264° (W) 10:41:17 145.980
GOMX 1 21 Dec 10:36:18 10:39:12 16° 299° (WNW) 10:42:12 467.674
UKube-1 21 Dec 10:40:24 10:44:18 33° 293° (WNW) 10:48:11 .
AAUSAT CUBESAT 2 21 Dec 10:43:07 10:45:10 13° 301° (WNW) 10:47:13 437.432
UNISAT 6 21 Dec 10:43:26 10:46:34 19° 269° (W) 10:49:46 437.425
QB50P2 21 Dec 10:48:26 10:51:45 22° 267° (W) 10:55:05 145.880/145.840
CUBEBUG 2 21 Dec 10:56:10 11:00:06 28° 294° (WNW) 11:04:06 437.445
POLYITAN 1 21 Dec 10:58:01 11:00:57 18° 268° (W) 11:03:54 437.675
DOVE 4 21 Dec 10:58:54 11:01:14 14° 301° (WNW) 11:03:37 437.250
NANOSAT C BR1 21 Dec 10:59:40 11:02:31 18° 268° (W) 11:05:24 145.865
ZACube-1 21 Dec 11:03:37 11:07:34 30° 293° (WNW) 11:11:34 437.345
VELOX 1 21 Dec 11:07:41 11:11:56 47° 290° (WNW) 11:16:11 145.980
ESTCUBE 1 21 Dec 11:12:36 11:17:08 85° 104° (ESE) 11:21:37 437.505/2401.250
QB50P1 21 Dec 11:15:24 11:17:15 13° 271° (W) 11:19:08 145.935-145.965
TISAT 1 21 Dec 11:18:03 11:21:33 25° 94° (E) 11:25:03 437.305
CINEMA 3 21 Dec 11:18:58 11:21:18 14° 301° (WNW) 11:23:40 145.822/145.860
Oscar 19 21 Dec 11:21:29 11:25:52 29° 63° (ENE) 11:30:17 437.125/150
SPROUT 21 Dec 11:23:38 11:27:19 27° 95° (E) 11:31:00 437.525
50 SAT 21 Dec 11:30:46 11:34:21 29° 293° (WNW) 11:37:56 437.505
FUNcube-1 21 Dec 11:30:48 11:33:54 19° 298° (WNW) 11:37:01 145.935
UWE-3 21 Dec 11:33:46 11:36:29 16° 300° (WNW) 11:39:13 435.000/436.395/437.385
ITAMSAT 1 21 Dec 11:40:03 11:43:32 19° 58° (ENE) 11:47:00 435.822/435.867
Gurwin Techsat 1B 21 Dec 11:41:05 11:43:17 13° 53° (NE) 11:45:30 435.225
AISAT 21 Dec 11:52:10 11:55:19 19° 298° (WNW) 11:58:28 437.250
CUBEBUG 1 21 Dec 11:54:39 11:58:41 38° 291° (WNW) 12:02:41 437.445
YUBILEINY 21 Dec 11:59:27 12:07:04 36° 276° (W) 12:14:41 435.215
HUMSAT D 21 Dec 11:59:46 12:02:10 15° 300° (WNW) 12:04:35 437.325/437.525
BEESAT 3 21 Dec 12:23:11 12:26:44 29° 116° (ESE) 12:30:20 437.485
